Weather History for Belleville, IL

Change the Weather History Date:

Tuesday, February 5, 2013

  Actual Average Record
Temperature  
Mean Temperature 41 °F -  
Max Temperature 56 °F 42 °F 67 °F (1986)
Min Temperature 26 °F 21 °F -10 °F (1979)
Degree Days  
Heating Degree Days 24    
Moisture  
Dew Point 29 °F    
Average Humidity 76    
Maximum Humidity 98    
Minimum Humidity 38    
Precipitation  
Precipitation 0.00 in - - ()
Sea Level Pressure  
Sea Level Pressure 29.99 in    
Wind  
Wind Speed 4 mph (WNW)    
Max Wind Speed 14 mph    
Max Gust Speed 22 mph    
Visibility 10 miles    
Events      
Averages and records for this station are not official NWS values.
T = Trace of Precipitation, MM = Missing Value Source: NWS Daily Summary

Daily Weather History Graph

Daily Weather History Graph

Search for Another Location

Airport:

Trip Planner

Search our weather history database for the weather conditions in past years. The results will help you decide how hot, cold, wet, or windy it might be!

Date:

Astronomy

Feb. 05, 2013 Rise Set
Actual Time 7:00 AM CST 5:26 PM CST
Civil Twilight 6:33 AM CST 5:54 PM CST
Nautical Twilight 6:01 AM CST 6:25 PM CST
Astronomical Twilight 5:30 AM CST 6:56 PM CST
Moon 2:41 AM CST (2/5) 12:45 PM CST (2/5)
Length of Visible Light 11h 20m
Length of Day
10h 25m
Waning Crescent, 26% of the Moon is Illuminated
Feb 5
Waning Crescent
Feb 10
New
Feb 17
First Quarter
Feb 25
Full
Mar 4
Last Quarter

Hourly Weather History & Observations

Time (CST) Temp. Windchill Dew Point Humidity Pressure Visibility Wind Dir Wind Speed Gust Speed Precip Events Conditions
12:55 AM 28.4 °F 22.2 °F 26.1 °F 91% 29.98 in 10.0 mi North 5.8 mph - N/A   Clear
1:55 AM 26.6 °F - 25.0 °F 94% 29.97 in 9.0 mi Calm Calm - N/A   Partly Cloudy
2:19 AM 26.6 °F - 24.8 °F 93% 29.98 in 8.0 mi Calm Calm - N/A   Mostly Cloudy
2:51 AM 28.4 °F - 26.6 °F 93% 29.96 in 8.0 mi Calm Calm - N/A   Overcast
2:55 AM 29.1 °F - 26.2 °F 89% 29.96 in 7.0 mi Calm Calm - N/A   Overcast
3:55 AM 29.1 °F - 26.6 °F 90% 29.97 in 10.0 mi Calm Calm - N/A   Overcast
4:55 AM 28.9 °F 25.2 °F 26.6 °F 91% 29.98 in 10.0 mi NW 3.5 mph - N/A   Overcast
5:38 AM 28.4 °F - 26.6 °F 93% 29.98 in 10.0 mi Calm Calm - N/A   Overcast
5:55 AM 28.6 °F - 26.8 °F 93% 29.99 in 10.0 mi Calm Calm - N/A   Overcast
6:55 AM 27.9 °F - 26.6 °F 95% 29.97 in 9.0 mi Calm Calm - N/A   Overcast
7:55 AM 28.0 °F - 27.5 °F 98% 29.99 in 6.0 mi Calm Calm - N/A   Overcast
8:55 AM 30.4 °F 22.9 °F 28.2 °F 92% 29.99 in 10.0 mi South 8.1 mph - N/A   Clear
9:55 AM 34.7 °F 29.6 °F 29.7 °F 82% 29.98 in 10.0 mi South 5.8 mph - N/A   Partly Cloudy
10:55 AM 37.0 °F 32.4 °F 30.7 °F 78% 29.98 in 10.0 mi South 5.8 mph - N/A   Clear
11:55 AM 42.6 °F 38.4 °F 32.7 °F 68% 29.95 in 10.0 mi SSW 6.9 mph - N/A   Clear
12:55 PM 48.4 °F - 34.2 °F 58% 29.92 in 10.0 mi SW 6.9 mph - N/A   Clear
1:55 PM 53.2 °F - 33.1 °F 46% 29.91 in 10.0 mi WSW 12.7 mph 18.4 mph N/A   Clear
2:55 PM 56.3 °F - 32.4 °F 40% 29.91 in 10.0 mi West 9.2 mph - N/A   Clear
3:55 PM 56.8 °F - 31.5 °F 38% 29.92 in 10.0 mi West 13.8 mph 21.9 mph N/A   Clear
4:55 PM 54.1 °F - 31.6 °F 42% 29.94 in 10.0 mi WNW 6.9 mph - N/A   Clear
5:55 PM 47.3 °F - 32.2 °F 56% 29.98 in 10.0 mi NW 9.2 mph - N/A   Clear
6:55 PM 44.4 °F 40.0 °F 32.2 °F 62% 30.01 in 10.0 mi NW 8.1 mph - N/A   Clear
7:55 PM 41.2 °F 39.2 °F 31.3 °F 68% 30.05 in 10.0 mi WNW 3.5 mph - N/A   Clear
8:55 PM 39.6 °F 34.0 °F 30.9 °F 71% 30.08 in 10.0 mi NNW 8.1 mph - N/A   Clear
9:55 PM 39.6 °F 32.1 °F 31.3 °F 72% 30.12 in 10.0 mi North 12.7 mph - N/A   Clear
10:55 PM 35.8 °F 31.9 °F 29.8 °F 79% 30.13 in 10.0 mi NW 4.6 mph - N/A   Clear
11:55 PM 35.2 °F 32.4 °F 30.2 °F 82% 30.15 in 10.0 mi NNW 3.5 mph - N/A   Clear